Regional Weather Roundup
Issued by NWS

Home | Current Version | Previous Version | Text Only | Print | Product List | Glossary On
Versions: 1 2 3 4 5 6 7 8 9 10 11 12 13 14 15 16 17 18 19 20 21 22 23 24 25 26 27 28 29 30 31 32 33 34 35 36 37 38 39 40 41 42 43 44 45 46 47 48 49 50
535
ASUS44 KFWD 280015
RWRTX
NORTH TEXAS HOURLY WEATHER ROUNDUP
NATIONAL WEATHER SERVICE FORT WORTH TX
600 PM CST MON FEB 27 2017

NOTE: "FAIR" INDICATES FEW OR NO CLOUDS BELOW 12,000 FEET WITH NO
SIGNIFICANT WEATHER AND/OR OBSTRUCTIONS TO VISIBILITY.

TXZ118-119-280100-
DALLAS/FORT WORTH METROPLEX

CITY           SKY/WX    TMP DP  RH WIND       PRES   REMARKS
DFW AIRPORT    PTCLDY    78  62  57 S21       29.82R
6HR MIN TEMP:  73; 6HR MAX TEMP:  80; 6HR PCP: TRACE;

DALLAS LOVE    PTCLDY    79  61  53 S12G22    29.83S
6HR MIN TEMP:  72; 6HR MAX TEMP:  80; 6HR PCP:  0.01;

FTW MEACHAM    CLEAR     77  60  55 S13G23    29.83R
6HR MIN TEMP:  72; 6HR MAX TEMP:  79; 6HR PCP: TRACE;

DAL-EXECUTIVE  CLEAR     78  62  57 S9G21     29.83S
6HR MIN TEMP:  72; 6HR MAX TEMP:  80; 6HR PCP: TRACE;

FTW-ALLIANCE   PTCLDY    76  60  57 S13       29.83R
6HR MIN TEMP:  72; 6HR MAX TEMP:  80;

FTW-NAS-JRB    PTCLDY    77  61  57 S21       29.83S
6HR MIN TEMP:  71; 6HR MAX TEMP:  80;

FTW-SPINKS     CLEAR     77  61  57 S14G25    29.85S
ARLINGTON      CLEAR     77  61  57 S13       29.83S
6HR MIN TEMP:  73; 6HR MAX TEMP:  79;

GRAND PRAIRIE  CLEAR     75  63  64 S12G21    29.85S
ADDISON        PTCLDY    77  61  57 S8G18     29.84S
MESQUITE       MOCLDY    79  61  53 S12       29.85S
LANCASTER      PTCLDY    77  62  60 S12       29.86R
6HR MIN TEMP:  69; 6HR MAX TEMP:  78;

$$

TXZ091>094-102>105-117-120-121-131>134-280100-
NORTH CENTRAL TEXAS

CITY           SKY/WX    TMP DP  RH WIND       PRES   REMARKS
SHRMAN/DENISON MOCLDY    72  63  73 S8        29.86R
6HR MIN TEMP:  63; 6HR MAX TEMP:  74; 6HR PCP:  0.01;

GAINESVILLE    MOCLDY    73  61  67 SE9       29.86R
6HR MIN TEMP:  63; 6HR MAX TEMP:  75; 6HR PCP:  0.01;

BOWIE          CLEAR     75  60  59 S10       29.83S
6HR MIN TEMP:  67; 6HR MAX TEMP:  79;

BRIDGEPORT     CLEAR     76  58  53 S9        29.85R
6HR MIN TEMP:  70; 6HR MAX TEMP:  78;

DECATUR        CLEAR     75  59  57 S12       29.84R
6HR MIN TEMP:  68; 6HR MAX TEMP:  77;

DENTON         MOCLDY    76  63  64 S12       29.83R
6HR MIN TEMP:  72; 6HR MAX TEMP:  78;

MCKINNEY       CLEAR     73  65  75 S12       29.84S
6HR MIN TEMP:  69; 6HR MAX TEMP:  76; 6HR PCP:  0.03;

BONHAM         CLOUDY    68  64  88 E8        29.86R
GREENVILLE     CLEAR     72  61  68 SE8       29.86S
ROCKWALL       MOCLDY    76  64  66 S8        29.85S
6HR MIN TEMP:  69; 6HR MAX TEMP:  78;

TERRELL        PTCLDY    76  62  62 S7        29.86S
6HR MIN TEMP:  68; 6HR MAX TEMP:  79; 6HR PCP:  0.01;

WAXAHACHIE     CLEAR     75  64  68 S10       29.86R
6HR MIN TEMP:  69; 6HR MAX TEMP:  79;

CLEBURNE       CLEAR     75  64  69 S13       29.86S
GRANBURY       CLEAR     77  61  57 S10G17    29.85R
6HR MIN TEMP:  73; 6HR MAX TEMP:  80;

$$

TXZ083>090-098>101-113>116-127>130-139>142-154-155-280100-
WESTERN NORTH TEXAS

CITY           SKY/WX    TMP DP  RH WIND       PRES   REMARKS
WICHITA FALLS  PTCLDY    74  50  42 S15       29.78S
6HR MIN TEMP:  63; 6HR MAX TEMP:  80;

WF-KICKAPOO    CLEAR     76  53  45 S8        29.80R
6HR MIN TEMP:  64; 6HR MAX TEMP:  80;

VERNON         CLEAR     77  20  11 S14       29.78R
6HR MIN TEMP:  36; 6HR MAX TEMP:  82;

ABILENE        CLEAR     76  44  32 S9        29.84R
6HR MIN TEMP:  69; 6HR MAX TEMP:  78; 6HR PCP: TRACE;

ABILENE-DYESS  CLEAR     78  41  26 W12       29.82R
6HR MIN TEMP:  72; 6HR MAX TEMP:  80;

GRAHAM         PTCLDY    77  57  50 S9        29.81R
BRECKENRIDGE   PTCLDY    78  49  35 SW7       29.83R
6HR MIN TEMP:  72; 6HR MAX TEMP:  82;

CISCO          PTCLDY    75  57  53 S12G17    29.85R
RANGER         CLEAR     73  57  56 S10       29.86R
MINERAL WELLS  CLEAR     75  58  55 S10       29.82R
6HR MIN TEMP:  71; 6HR MAX TEMP:  80;

STEPHENVILLE   CLEAR     75  58  54 S8        29.88R
6HR MIN TEMP:  68; 6HR MAX TEMP:  79;

COMANCHE       CLEAR     74  59  59 S8        29.86R
6HR MIN TEMP:  66; 6HR MAX TEMP:  78;

BROWNWOOD      CLEAR     75  57  53 SE9       29.85S
COLEMAN        CLEAR     77  52  40 S9        29.85S
6HR MIN TEMP:  66; 6HR MAX TEMP:  80;

$$

TXZ143>147-156>162-174-175-280100-
CENTRAL TEXAS

CITY           SKY/WX    TMP DP  RH WIND       PRES   REMARKS
WACO           CLEAR     74  64  71 S10       29.85F
6HR MIN TEMP:  74; 6HR MAX TEMP:  80;

WACO-TSTC      CLEAR     77  63  61 S8        29.85
WACO-MCGREGOR  CLEAR     76  64  66 S8        29.86S
6HR MIN TEMP:  75; 6HR MAX TEMP:  80;

HILLSBORO      CLEAR     76  65  67 S10       29.86S
6HR MIN TEMP:  72; 6HR MAX TEMP:  80;

CORSICANA      CLEAR     78  62  57 S12       29.87S
6HR MIN TEMP:  76; 6HR MAX TEMP:  82;

MEXIA          CLEAR     77  61  57 S12       29.86S
6HR MIN TEMP:  76; 6HR MAX TEMP:  82;

HEARNE         PTCLDY    79  64  60 SE7       29.89R
6HR MIN TEMP:  77; 6HR MAX TEMP:  82;

CAMERON        PTCLDY    78  64  61 S8        29.87R
6HR MIN TEMP:  78; 6HR MAX TEMP:  83;

TEMPLE         CLEAR     76  64  66 S13       29.87S
6HR MIN TEMP:  75; 6HR MAX TEMP:  80;

KILLEEN        PTCLDY    74  62  66 S8        29.86S
6HR MIN TEMP:  69; 6HR MAX TEMP:  78;

KILLEEN-SKYLRK CLEAR     76  64  66 S7        29.87S
6HR MIN TEMP:  71; 6HR MAX TEMP:  80; 6HR PCP: TRACE;

FORT HOOD      CLEAR     75  62  62 S8        29.84S
6HR MIN TEMP:  70; 6HR MAX TEMP:  79; 6HR PCP: TRACE;

GATESVILLE     CLEAR     75  61  60 S6        29.89R
HAMILTON       CLEAR     76  60  57 S12       29.87S
6HR MIN TEMP:  71; 6HR MAX TEMP:  79;

LAMPASAS       CLEAR     76  64  66 S8        29.87S
6HR MIN TEMP:  68; 6HR MAX TEMP:  78;

$$

TXZ095>097-106>112-122>126-135>138-148>153-164>167-280100-
EAST TEXAS

CITY           SKY/WX    TMP DP  RH WIND       PRES   REMARKS
PARIS          CLOUDY    63  59  88 E13       29.91R
6HR MIN TEMP:  57; 6HR MAX TEMP:  63;

SULPHUR SPRNGS MOCLDY    68  64  86 E8        29.90S FOG
6HR MIN TEMP:  67; 6HR MAX TEMP:  75;

MOUNT PLEASANT CLOUDY    63  63 100 E9        29.91F
6HR MIN TEMP:  60; 6HR MAX TEMP:  66;

GILMER         CLOUDY    68  64  87 E5        29.90R
6HR MIN TEMP:  61; 6HR MAX TEMP:  75;

MINEOLA        CLOUDY    68  64  88 CALM      29.87F
TYLER          PTCLDY    78  61  55 S10       29.88R
6HR MIN TEMP:  73; 6HR MAX TEMP:  83;

LONGVIEW       PTCLDY    77  64  64 SE9       29.89S
6HR MIN TEMP:  70; 6HR MAX TEMP:  82;

MARSHALL       CLOUDY    70  64  81 E5        29.94S
6HR MIN TEMP:  63; 6HR MAX TEMP:  75;

ATHENS         PTCLDY    77  59  53 S10G17    29.86S
PALESTINE      PTCLDY    79  64  61 SE5       29.90R
JACKSONVILLE   PTCLDY    77  63  62 S9        29.92S
HENDERSON      PTCLDY    77  60  55 SE7       29.92R
6HR MIN TEMP:  75; 6HR MAX TEMP:  82;

CENTER         MOCLDY    81  65  59 SE5       29.94S
6HR MIN TEMP:  80; 6HR MAX TEMP:  85;

NACOGDOCHES    CLEAR     79  63  57 S12       29.90R
6HR MIN TEMP:  61; 6HR MAX TEMP:  82;

LUFKIN         CLEAR     77  63  61 S13       29.91F
6HR MIN TEMP:  77; 6HR MAX TEMP:  82;

$$

SUPPLEMENTAL OBSERVATIONS (CENTRAL)

CITY           SKY/WX    TMP DP  RH WIND       PRES   REMARKS
DENISON DAM      N/A     72  63  73 S6          N/A
CADDO GRASSLND   N/A     64  61  88 SE6         N/A
PAT MAYSE LAKE   N/A     61  59  94 E9          N/A
GREENVILLE       N/A     72  64  78 E8          N/A
C



USA.gov is the U.S. government's official web portal to all federal, state and local government web resources and services.